sat.trackr.live / text

‹ back to catalog

STARLINK-34089

NORAD 64039 · 2025-102T

PAYLOAD ACTIVE UNKNOWN

§ Identity

Operator
Country
US
Launch date
2025-05-16
Launch site
AFWTR
Launch vehicle
Mass (kg)
RCS (m²)

Purposes: comms

External: N2YO · Heavens-Above · Gunter

§ Orbital elements

Epoch: 2026-09-20T11:47:46.773312Z

Period
94.14 min
Inclination
70.0009°
Eccentricity
0.0003198
Mean motion
15.29578998 rev/d
Perigee alt
474.9 km
Apogee alt
479.3 km
Semi-major
6,855.2 km
B*
4.3776e-4
RAAN
340.8121°
Arg perigee
272.0251°
Mean anomaly
88.0557°
Rev number
7,519

§ Raw data

STARLINK-340891 64039U 25102T   26263.49151358  .00012477  00000+0  43776-3 0  99972 64039  70.0009 340.8121 0003198 272.0251  88.0557 15.29578998 75197

JSON: /api/v1/satellites/64039 · /tle

For live sub-satellite position, see the globe view (requires WebGL).

§ Visibility from observer

Set your observer location to see the next 7 days of passes ≥ 10°. The values pass through the URL so the page stays shareable.

No JS? Fill the form by hand. The geolocation button needs JavaScript.